EW3114 Weather Reports


Display with metric or nautical units.
time (UTC)temp
F
wind
direction
speed
MPH
gust
MPH
rain 1hr
in
rain 24hr
in
rain mn
in
humidity
%
barometer
mb
20260503211558 0 243 0.0 0.0 0.00 0.00 0.00 1010.1
20260503210054 0 21 0.0 0.0 0.00 0.00 0.00 1010.3
20260503204550 0 207 0.0 0.0 0.00 0.00 0.00 1010.6
20260503203052 0 78 0.0 0.0 0.00 0.00 0.00 1010.9
20260503201544 0 190 0.0 0.0 0.00 0.00 0.00 1010.8
20260503200036 0 132 0.0 0.0 0.00 0.00 0.00 1011.2
20260503194533 0 17 0.0 0.0 0.00 0.00 0.00 1011.3
20260503193013 0 8 0.0 0.0 0.00 0.00 0.00 1011.6
20260503191525 0 89 0.0 0.0 0.00 0.00 0.00 1011.9
20260503190052 0 125 0.0 0.0 0.00 0.00 0.00 1012.2
20260503184558 0 272 0.0 0.0 0.00 0.00 0.00 100 1012.5
20260503183044 0 138 0.0 0.0 0.00 0.00 0.00 1012.9
20260503181538 0 143 0.0 0.0 0.00 0.00 0.00 1013.4
20260503180044 0 257 0.0 0.0 0.00 0.00 0.00 1014.4
20260503174532 0 196 0.0 0.0 0.00 0.00 0.00 1014.9
20260503173025 0 326 0.0 0.0 0.00 0.00 0.00 1015.3
20260503171525 0 112 0.0 0.0 0.00 0.00 0.00 1015.5
20260503081524 0 143 0.0 0.0 0.00 0.00 0.00 1018.4
20260503071519 0 185 0.0 0.0 0.00 0.00 0.00 1018.6
20260503054503 0 219 0.0 0.0 0.00 0.00 0.00 1019.3
20260503053059 0 234 0.0 0.0 0.00 0.00 0.00 1019.4
20260503051555 0 243 0.0 0.0 0.00 0.00 0.00 1019.6
20260503050052 0 101 0.0 0.0 0.00 0.00 0.00 1019.7
20260503044545 0 218 0.0 0.0 0.00 0.00 0.00 1019.7
20260503043048 0 252 0.0 0.0 0.00 0.00 0.00 1019.7
20260503041538 0 89 0.0 0.0 0.00 0.00 0.00 1019.7
20260503040034 0 98 0.0 0.0 0.00 0.00 0.00 1019.8
20260503034515 0 235 0.0 0.0 0.00 0.00 0.00 1019.8
20260503033019 0 195 0.0 0.0 0.00 0.00 0.00 1019.8
20260503031507 0 153 0.0 0.0 0.00 0.00 0.00 1019.9
20260503030002 0 124 0.0 0.0 0.00 0.00 0.00 1020.0
20260503024557 0 323 0.0 0.0 0.00 0.00 0.00 1020.1
20260503023059 0 184 0.0 0.0 0.00 0.00 0.00 1020.0
20260503021555 0 184 0.0 0.0 0.00 0.00 0.00 1020.1
20260503020049 0 174 0.0 0.0 0.00 0.00 0.00 1019.9
20260503014521 0 115 0.0 0.0 0.00 0.00 0.00 1019.9
20260503013017 0 257 0.0 0.0 0.00 0.00 0.00 1019.8
20260503011605 0 257 0.0 0.0 0.00 0.00 0.00 1019.8
20260503010103 0 146 0.0 0.0 0.00 0.00 0.00 1019.8
20260503004600 0 229 0.0 0.0 0.00 0.00 0.00 1019.8
20260503003102 0 134 0.0 0.0 0.00 0.00 0.00 1019.8
20260503001559 0 139 0.0 0.0 0.00 0.00 0.00 1019.9
20260503000039 0 152 0.0 0.0 0.00 0.00 0.00 1020.0
20260502234533 0 91 0.0 0.0 0.00 0.00 0.00 1020.0
20260502233030 0 219 0.0 0.0 0.00 0.00 0.00 1020.3
20260502231513 0 114 0.0 0.0 0.00 0.00 0.00 1020.4
20260502230003 0 132 0.0 0.0 0.00 0.00 0.00 1020.4
20260502224558 0 163 0.0 0.0 0.00 0.00 0.00 1020.5
20260502223037 0 150 0.0 0.0 0.00 0.00 0.00 1020.6
20260502221532 0 114 0.0 0.0 0.00 0.00 0.00 1020.6
20260502220031 0 309 0.0 0.0 0.00 0.00 0.00 1020.7
20260502214524 0 249 0.0 0.0 0.00 0.00 0.00 1020.8
20260502213019 0 221 0.0 0.0 0.00 0.00 0.00 1020.8